TimeCDT,TemperatureF,Dew PointF,Humidity,Sea Level PressureIn,VisibilityMPH,Wind Direction,Wind SpeedMPH,Gust SpeedMPH,PrecipitationIn,Events,Conditions,WindDirDegrees,DateUTC
12:55 AM,57.0,53.1,87,30.05,10.0,NW,3.5,-,N/A,,Clear,310,2013-07-27 05:55:00
1:55 AM,57.9,53.1,84,30.04,10.0,NW,4.6,-,N/A,,Clear,320,2013-07-27 06:55:00
2:55 AM,55.9,53.1,90,30.03,10.0,NW,5.8,-,N/A,,Clear,310,2013-07-27 07:55:00
3:55 AM,55.9,53.1,90,30.03,10.0,NNW,5.8,-,N/A,,Clear,330,2013-07-27 08:55:00
4:55 AM,55.9,52.0,87,30.04,10.0,NNW,6.9,-,N/A,,Clear,330,2013-07-27 09:55:00
5:55 AM,55.0,52.0,89,30.05,10.0,NNW,5.8,-,N/A,,Clear,330,2013-07-27 10:55:00
6:55 AM,55.9,53.1,90,30.06,10.0,NNW,5.8,-,N/A,,Clear,340,2013-07-27 11:55:00
7:55 AM,60.1,54.0,80,30.09,10.0,NW,6.9,-,N/A,,Clear,320,2013-07-27 12:55:00
8:55 AM,63.0,54.0,72,30.09,10.0,North,9.2,-,N/A,,Clear,350,2013-07-27 13:55:00
9:55 AM,66.9,53.1,61,30.08,10.0,North,8.1,-,N/A,,Clear,350,2013-07-27 14:55:00
10:55 AM,69.1,46.9,45,30.08,10.0,NNW,12.7,21.9,N/A,,Partly Cloudy,330,2013-07-27 15:55:00
11:55 AM,71.1,48.9,45,30.07,10.0,NNW,9.2,-,N/A,,Mostly Cloudy,330,2013-07-27 16:55:00
12:55 PM,72.0,50.0,46,30.05,10.0,NW,11.5,20.7,N/A,,Partly Cloudy,320,2013-07-27 17:55:00
1:55 PM,73.0,48.9,42,30.04,10.0,WNW,12.7,18.4,N/A,,Partly Cloudy,290,2013-07-27 18:55:00
2:55 PM,71.1,46.0,41,30.03,10.0,NNW,11.5,19.6,N/A,,Scattered Clouds,340,2013-07-27 19:55:00
3:55 PM,73.0,46.9,39,30.01,10.0,NW,13.8,21.9,N/A,,Scattered Clouds,310,2013-07-27 20:55:00
4:55 PM,73.9,48.0,40,30.01,10.0,NNW,11.5,16.1,N/A,,Mostly Cloudy,330,2013-07-27 21:55:00
5:55 PM,73.0,46.9,39,30.00,10.0,NNW,11.5,17.3,N/A,,Scattered Clouds,340,2013-07-27 22:55:00
6:55 PM,71.1,48.0,44,30.01,10.0,NNW,9.2,-,N/A,,Partly Cloudy,330,2013-07-27 23:55:00
7:55 PM,66.9,46.9,49,30.01,10.0,North,5.8,-,N/A,,Clear,360,2013-07-28 00:55:00
8:55 PM,60.1,46.9,62,30.02,10.0,North,3.5,-,N/A,,Clear,10,2013-07-28 01:55:00
9:55 PM,54.0,48.0,80,30.03,10.0,Calm,Calm,-,N/A,,Clear,0,2013-07-28 02:55:00
10:55 PM,51.1,48.0,89,30.04,10.0,Calm,Calm,-,N/A,,Clear,0,2013-07-28 03:55:00
11:55 PM,51.1,46.9,86,30.04,10.0,Calm,Calm,-,N/A,,Clear,0,2013-07-28 04:55:00